Location: ??
(35.5090°N, 139.6783°E)
Time: 01:40:25
(UTC+00:00)

Geosat - Pass Details

Date: 08 November 2025
Orbit: 758 x 760 km, 108.0° (Epoch: 09 December)

Event Time Altitude Azimuth Distance (km) Brightness Sun altitude
Rises 08:48:20 0° 139° (SE) 3,201 6.9 -14.2°
Reaches altitude 10° 08:50:39 10° 133° (SE) 2,280 6.1 -14.7°
Maximum altitude 08:55:24 48° 60° (ENE) 990 4.2 -15.7°
Drops below altitude 10° 09:00:11 10° 348° (NNW) 2,294 6.5 -16.6°
Sets 09:02:32 0° 343° (NNW) 3,223 7.3 -17.1°
